Location: Asheville, NC
(35.6000°N, 82.5500°W)
Time: 11:03:56
(UTC-04:00)

KKS-1 - Pass Details

Date: 14 February 2018
Orbit: 637 x 651 km, 98.4° (Epoch: 24 May)

Event Time Altitude Azimuth Distance (km) Brightness Sun altitude
Rises 05:07:29 0° 162° (SSE) 2,923 ? -27.1°
Reaches altitude 10° 05:09:40 10° 160° (SSE) 2,020 ? -26.7°
Maximum altitude 05:14:03 74° 75° (ENE) 668 ? -25.8°
Enters shadow 05:14:38 63° 20° (NNE) 715 ? -25.7°
